STARLINK-4787 (53904 NORAD) Tracking and Keplerian Element Data

This shows tracking and keplerian element data for the satellite.

Feedback or suggestion? Click here.




ElementValue
Catalog53904
NameSTARLINK-4787
Epoch Orbit130
Epoch Day324.91667824
Epoch Year2022
RAAN333.3567
Inclination53.2172
Eccentricity0.0001468
Argument of Perigee40.6247
Mean Anonmoly303.1265
Mean Motion15.37844008
Decay Rate-0.01137152
L11 53904U 22119U 22324.91667824 -.01137152 00000+0 -32991-1 0 9998
L22 53904 53.2172 333.3567 0001468 40.6247 303.1265 15.37844008 1309



Live tracking and technical data element details for STARLINK-4787 (NORAD 53904). STARLINK-4787 can be tracked NOW for your location showing map with azimuth and elevation plus other details from your city location.







IsCatalogInMostPopularTable: catalog: 53904, numindb: 1
Update: records affected: 1



GetName: 53904 STARLINK-4787

Hit Count: updated at: Fri, 09 Dec 2022 19:53:11 GMT